SAUDISAT 5B

Last updated on Thu Oct 30 2025 00:02:32 GMT+0000 (Coordinated Universal Time)

1 43833U 18102C 25302.50857219 .00007974 00000+0 31975-3 0 9996 2 43833 97.3502 6.2226 0009892 226.8283 133.2129 15.25226494380592
UTC large
Height (km)
Speed (km/s)
/
Latitude / Longitude
Inclination (degrees)
Orbital Period (minutes)
Azimuth
Elevation
Range (km)
Doppler Factor

Next 0 passes for location: London (51.5072 / 0.1276)

Sorry there are no passes over London.